Location: Kumla
(59.1265°N, 15.1401°E)
Time: 20:07:00
(UTC+01:00)

Vanguard 2 Rocket - Pass Details

Date: 12 December 2023
Orbit: 554 x 3309 km, 32.9° (Epoch: 28 February)

Event Time Altitude Azimuth Distance (km) Brightness Sun altitude
Rises 11:35:40 0° 194° (SSW) 5,453 12.6 7.7°
Reaches altitude 10° 11:41:02 10° 175° (S) 4,971 14.2 7.8°
Maximum altitude 11:48:48 16° 143° (SE) 5,052 11.7 7.8°
Drops below altitude 10° 11:57:59 10° 113° (ESE) 6,060 11.4 7.8°
Sets 12:05:51 0° 97° (E) 7,280 11.6 7.8°
